格洛纳斯M-747 COSMOS 2485 [GLONASS-M]

导读 | 星芒AI

COSMOS 2485 是一颗俄罗斯 GLONASS-M 导航卫星,于2013年12月25日由质子-M火箭发射升空。该卫星是GLONASS系统的一部分,用于提供全球定位和导航服务。GLONASS-M系列卫星相比早期型号具有更长的使用寿命和更高的精度。COSMOS 2485 运行在中地球轨道,设计寿命为7年,主要任务是增强俄罗斯的全球导航能力,支持民用和军用应用。

基本信息
目录编号:
39155
目录名称:
COSMOS 2485 (GLONASS)
国际标识:
2013-019A
轨道中心:
EARTH
卫星名称:
格洛纳斯M-747
卫星全名:
格洛纳斯M-747 COSMOS 2485 [GLONASS-M]
卫星状态:
在轨 (已飞行4572 天)
发射日期:
2013-04-26 UTC
国别 :
俄罗斯(独联体) (CIS)
星等 :
--
轨道信息
数据来源 国际轨道数据 AOE轨道数据
星历时间 2025-10-31T17:08:36+0800
23小时前
查看轨道信息
2025-10-27T10:00:00+0800
5天前
查看轨道信息
半长轴 25507.841km 25507.817km
偏心率 0.0023528 0.0023419
轨道倾角 65.292° 65.290°
近地点辐角 227.095° 226.801°
升交点赤经 81.291° 81.436°
平近点角 132.709° 75.972°
近地点 19069.691km 19069.945km
远地点 19189.721km 19189.419km
周期 675.725分钟 675.725分钟
每日圈数 2.131043 2.131046
详细信息
平衡模式:
三轴稳定
覆盖范围:
全球
运营商:
列舍特涅夫卫星信息系统
运营商所在国:
俄罗斯
制造商(研发单位):
列舍特涅夫卫星信息系统
制造商所在国:
俄罗斯
使用方式:
暂无
卫星简介
格洛纳斯(GLONASS )是苏联/俄罗斯研制卫星导航系统。标准配置为24颗卫星,其中18颗卫星就能保证该系统为俄罗斯境内用户提供全部服务。该卫星仍在工作。
2D轨道图
3D轨道图
轨道高度分析图
轨道倾角分析图
轨道综合分析图
查看轨道综合分析图